Content
SEND FEEDBACK

Daily
Averages
Monthly
Summary
Canada

AMHERST, NOVA SCOTIA


Home > North America > Canada > Nova Scotia
Elevation: 66 feet     Latitude: 45 46N     Longitude: 064 15W

WEATHER
 
SELECT A DAY
Number of Records: 96,727;   Date Range: 6/19/04 - 7/22/14
 
SHARE

PRINT THIS DATA

[ ← Previous Day ]
WEATHER ALMANAC - FEBRUARY 3, 2013
[ Next Day → ]
[ °C ]   °F
Weather ElementAverageHighLow
Temperature19.9 °F24.4 °F (11:00 pm)14.4 °F (1:00 am)
Dewpoint15.7 °F23.2 °F (11:00 pm)3.4 °F (1:00 am)
Humidity82.7 %95 % (7:00 pm)50 % (2:00 am)
Barometer29.96 in30.18 in (1:00 am)29.60 in (11:00 pm)
Wind Speed6.4 mph9.2 mph (1:00 pm)
Weather ElementAverage
Wind DirectionESE (112.6 °)

Weather ElementTotal
Precipitation0.17 in
Heating Degree Days45.6 (Base 65)
Averaged from 27 records on February 3, 2013
WEATHER CONDITIONS BREAKOUT
WIND DIRECTION BREAKOUT
WEATHER BY HOUR - FEBRUARY 3, 2013
[ °C ]   °F
Local TimeTemperatureDewpointHumidityBarometerVisibilityWind DirectionWind SpeedGust SpeedPrecipitationEventsConditions
1:00 AM14.4 °F3.4 °F62 %30.18 inENE (70°)3.5 mph
2:00 AM15.0 °F5.0 °F50 %30.17 inEast (90°)3.5 mph
2:00 AM14.7 °F4.6 °F64 %30.17 inEast (90°)3.5 mph
3:00 AM15.1 °F5.5 °F66 %30.17 inEast (100°)8.1 mph
4:00 AM15.8 °F6.8 °F68 %30.14 inEast (100°)6.9 mph
5:00 AM14.9 °F9.7 °F80 %30.14 inEast (90°)6.9 mph
6:00 AM15.3 °F10.4 °F81 %30.13 inEast (80°)8.1 mph
7:00 AM14.9 °F10.9 °F84 %30.12 inENE (60°)4.6 mph
8:00 AM17.0 °F12.0 °F72 %30.10 inENE (60°)5.8 mph
8:00 AM16.9 °F12.0 °F81 %30.10 inENE (60°)5.8 mph0.01 in
9:00 AM17.6 °F13.6 °F84 %30.08 inENE (70°)5.8 mph
10:00 AM19.4 °F15.4 °F85 %30.05 inENE (60°)4.6 mph
11:00 AM20.7 °F16.0 °F82 %30.03 inNE (50°)4.6 mph0.01 in
12:00 PM21.7 °F18.1 °F86 %30.00 inNNE (30°)4.6 mph
1:00 PM22.8 °F19.6 °F87 %29.96 inNNE (30°)9.2 mph
2:00 PM24.0 °F21.0 °F81 %29.90 inNE (50°)8.1 mph
2:00 PM23.7 °F20.7 °F88 %29.90 inNE (50°)8.1 mph0.02 in
3:00 PM24.3 °F21.4 °F89 %29.87 inNE (40°)9.2 mph0.02 in
4:00 PM23.4 °F21.0 °F91 %29.85 inNE (40°)9.2 mph0.02 in
5:00 PM23.0 °F21.0 °F92 %29.83 inNNE (30°)5.8 mph0.03 in
6:00 PM23.0 °F21.6 °F94 %29.79 inNorth (10°)6.9 mph0.04 in
7:00 PM23.2 °F21.9 °F95 %29.77 inNorth (360°)5.8 mph0.02 in
8:00 PM23.0 °F22.0 °F92 %29.73 inNorth (350°)8.1 mph
8:00 PM22.8 °F21.6 °F95 %29.73 inNorth (350°)8.1 mph
9:00 PM23.2 °F21.9 °F95 %29.68 inNorth (10°)8.1 mph
10:00 PM24.1 °F22.8 °F95 %29.64 inNorth (350°)4.6 mph
11:00 PM24.4 °F23.2 °F95 %29.60 inNorth (360°)5.8 mph
Hourly data recorded from CXNP, located miles away from Amherst, Nova Scotia







STORIES FROM OUR PARTNERS